Probability
0 0 0 0 0 0 0 0 0 0 0 0 0 0 0 0 0 0 0 0 0 0 0 0 0 0 0 0 0 0 0 0 0 0 0 0 0 0 0 0 0 0 0
0 0 0 0 0 0 0 0 0 0 0 0 0 0 0 0 0 0 0 0 0 0 0 0 0 0 0 0 0 0 0 0 0 0 0 0 0 0 0 0 0 0 0
0 0 0 0 0 0 0 0 0 0 0 0 0 0 0 0 0 0 0 0 0 0 0 0 0 0 0 0 0 0 0 0 0 0 0 0 0 0 0 0 0 0 0
0 0 0 0 0 0 0 0 0 0 0 0 0 0 0 0 0 0 0 0 0 0 0 0 0 0 0 0 0 0 0 0 0 0 0 0 0 0 0 0 0 0 0
0 0 0 0 0 0 0 0 0 0 0 0 0 0 0 0 0 0 0 0 0 0 0 0 0 0 0 0 0 0 0 0 0 0 0 0 0 0 0 0 0 0 0
0 0 0 0 0 0 0 0 0 0 0 0 0 0 0 0 0 0 0 0 0 0 0 0 0 0 0 0 0 0 0 0 0 0 0 0 0 0 0 0 0 0 0
0 0 0 0 0 0 0 0 0 0 0 0 0 0 0 0 0 0 0 0 0 0 0 0 0 0 0 0 0 0 0 0 0 0 0 0 0 0 0 0 0 0 0
0 0 0 0 0 0 0 0 0 0 0 0 0 0 0 0 0 0 0 0 0 0 0 0 0 0 0 0 0 0 0 0 0 0 0 0 0 0 0 0 0 0 0
0 0 0 0 0 0 0 0 0 0 0 0 0 0 0 0 0 0 0 0 0 0 0 0 0 0 0 0 0 0 0 0 0 0 0 0 0 0 0 0 0 0 0
0 0 0 0 0 0 0 0 0 0 0 0 0 0 0 0 0 0 0 0 0 0 0 0 0 0 0 0 0 0 0 0 0 0 0 0 0 0 0 0 0 0 0
0 0 0 0 0 0 0 0 0 0 0 0 0 0 0 0 0 0 0 0 0 0 0 0 0 0 0 0 0 0 0 0 0 0 0 0 0 0 0 0 0 0 0
0 0 0 0 0 0 0 0 0 0 0 0 0 0 0 0 0 0 0 0 0 0 0 0 0 0 0 0 0 0 0 0 0 0 0 0 0 0 0 0 0 0 0
0 0 0 0 0 0 0 0 0 0 0 0 0 0 0 0 0 0 0 0 0 0 0 0 0 0 0 0 0 0 0 0 0 0 0 0 0 0 0 0 0 0 0
0 0 0 0 0 0 0 0 0 0 0 0 0 0 0 0 0 0 0 0 0 0 0 0 0 0 0 0 0 0 0 0 0 0 0 0 0 0 0 0 0 0 0
0 0 0 0 0 0 0 0 0 0 0 0 0 0 0 0 0 0 0 0 0 0 0 0 0 0 0 0 0 0 0 0 0 0 0 0 0 0 0 0 0 0 0
0 0 0 0 0 0 0 0 0 0 0 0 0 0 0 0 0 0 0 0 0 0 0 0 0 0 0 0 0 0 0 0 0 0 0 0 0 0 0 0 0 0 0
0 0 0 0 0 0 0 0 0 0 0 0 0 0 0 0 0 0 0 0 0 0 0 0 0 0 0 0 0 0 0 0 0 0 0 0 0 0 0 0 0 0 0
0 0 0 0 0 0 0 0 0 0 0 0 0 0 0 0 0 0 0 0 0 0 0 0 0 0 0 0 0 0 0 0 0 0 0 0 0 0 0 0 0 0 0
0 0 0 0 0 0 0 0 0 0 0 0 0 0 0 0 0 0 0 0 0 0 0 0 0 0 0 0 0 0 0 0 0 0 0 0 0 0 0 0 0 0 0
0 0 0 0 0 0 0 0 0 0 0 0 0 0 0 0 0 0 0 0 0 0 0 0 0 0 0 0 0 0 0 0 0 0 0 0 0 0 0 0 0 0 0
0 0 0 0 0 0 0 0 0 0 0 0 0 0 0 0 0 0 0 0 0 0 0 0 0 0 0 0 0 0 0 0 0 0 0 0 0 0 0 0 0 0 0
0 0 0 0 0 0 0 0 0 0 0 0 0 0 0 0 0 0 0 0 0 0 0 0 0 0 0 0 0 0 0 0 0 0 0 0 0 0 0 0 0 0 0
0 0 0 0 0 0 0 0 0 0 0 0 0 0 0 0 0 0 0 0 0 0 0 0 0 0 0 0 0 0 0 0 0 0 0 0 0 0 0 0 0 0 0
0 0 0 0 0 0 0 0 0 0 0 0 0 0 0 0 0 0 0 0 0 0 0 0 0 0 0 0 0 0 0 0 0 0 0 0 0 0 0 0 0 0 0
0 0 0 0 0 0 0 0 0 0 0 0 0 0 0 0 0 0 0 0 0 0 0 0 0 0 0 0 0 0 0 0 0 0 0 0 0 0 0 0 0 0 0
0 0 0 0 0 0 0 0 0 0 0 0 0 0 0 0 0 0 0 0 0 0 0 0 0 0 0 0 0 0 0 0 0 0 0 0 0 0 0 0 0 0 0
Height
5571 5574 5576 5580 5583 5586 5589 5593 5597 5601 5605 5610 5615 5619 5623 5627 5631 5634 5638 5641 5644 5647 5650 5653 5656 5659 5661 5664 5666 5668 5671 5673 5676 5679 5681 5682 5684 5686 5688 5690 5691 5693 5695
5558 5560 5563 5566 5569 5572 5575 5579 5583 5587 5591 5596 5601 5605 5609 5613 5616 5620 5623 5627 5630 5633 5635 5638 5641 5643 5646 5648 5651 5653 5656 5658 5661 5664 5666 5668 5670 5672 5674 5676 5678 5679 5681
5545 5547 5550 5552 5555 5559 5562 5565 5569 5573 5578 5582 5587 5591 5595 5599 5602 5605 5609 5612 5615 5618 5620 5623 5626 5628 5631 5633 5635 5638 5640 5643 5645 5648 5651 5653 5655 5657 5660 5662 5664 5665 5667
5532 5534 5537 5540 5543 5546 5549 5552 5556 5560 5565 5569 5574 5578 5581 5584 5588 5591 5594 5597 5600 5603 5605 5607 5610 5613 5615 5618 5620 5622 5624 5627 5629 5632 5635 5638 5640 5642 5644 5647 5649 5650 5652
5519 5522 5524 5527 5530 5533 5536 5540 5543 5548 5552 5556 5560 5563 5567 5570 5573 5576 5579 5582 5585 5587 5589 5592 5594 5597 5600 5602 5604 5607 5609 5611 5613 5616 5619 5622 5624 5626 5629 5631 5633 5635 5636
5507 5510 5512 5514 5517 5521 5524 5527 5531 5535 5539 5543 5546 5550 5553 5556 5559 5561 5564 5567 5569 5571 5574 5576 5579 5581 5584 5586 5588 5590 5593 5595 5597 5600 5603 5605 5608 5610 5612 5614 5617 5619 5622
5496 5498 5500 5502 5505 5508 5511 5514 5518 5522 5526 5529 5532 5535 5538 5541 5544 5546 5548 5551 5553 5556 5558 5561 5563 5565 5567 5570 5572 5574 5577 5579 5582 5584 5587 5589 5592 5595 5597 5599 5600 5602 5605
5484 5486 5488 5490 5493 5496 5498 5501 5505 5508 5512 5515 5518 5521 5524 5526 5528 5530 5533 5535 5538 5541 5543 5545 5548 5550 5552 5554 5557 5559 5561 5564 5566 5569 5572 5574 5575 5577 5579 5582 5583 5585 5588
5473 5475 5476 5478 5481 5483 5486 5489 5492 5495 5498 5501 5504 5507 5509 5512 5514 5515 5518 5520 5523 5525 5528 5530 5532 5534 5537 5539 5541 5544 5546 5548 5550 5552 5555 5557 5559 5561 5563 5564 5566 5568 5571
5461 5463 5465 5467 5469 5471 5474 5477 5479 5482 5485 5487 5490 5493 5495 5498 5499 5501 5503 5505 5508 5511 5513 5515 5517 5519 5521 5523 5525 5528 5531 5533 5534 5537 5539 5541 5543 5545 5546 5548 5550 5551 5553
5450 5451 5453 5455 5457 5459 5462 5464 5467 5469 5472 5474 5477 5479 5482 5483 5485 5486 5488 5490 5493 5495 5497 5500 5502 5504 5506 5508 5510 5513 5515 5517 5519 5521 5523 5525 5527 5528 5530 5531 5533 5535 5536
5439 5440 5442 5443 5445 5447 5449 5452 5454 5456 5459 5461 5463 5465 5467 5469 5471 5473 5474 5476 5478 5480 5483 5485 5487 5489 5491 5493 5495 5497 5499 5501 5503 5505 5507 5508 5510 5512 5513 5514 5516 5517 5519
5427 5428 5430 5431 5433 5435 5437 5439 5441 5443 5445 5448 5450 5452 5454 5456 5457 5459 5460 5462 5463 5465 5468 5470 5472 5473 5476 5478 5480 5481 5483 5485 5487 5489 5491 5492 5494 5495 5496 5497 5499 5500 5502
5416 5417 5418 5419 5421 5423 5425 5427 5429 5431 5433 5435 5437 5439 5440 5442 5443 5445 5446 5448 5450 5451 5453 5455 5456 5459 5461 5463 5464 5466 5468 5469 5471 5473 5474 5476 5477 5478 5480 5481 5482 5483 5485
5405 5406 5407 5408 5409 5411 5413 5415 5417 5419 5420 5422 5424 5425 5427 5429 5430 5432 5433 5435 5436 5438 5439 5441 5443 5445 5446 5448 5450 5451 5453 5454 5456 5458 5459 5460 5462 5463 5464 5465 5466 5467 5469
5394 5395 5395 5396 5398 5399 5401 5402 5404 5406 5407 5409 5411 5412 5414 5415 5416 5418 5420 5421 5422 5424 5426 5427 5429 5431 5432 5434 5436 5437 5439 5440 5442 5443 5444 5446 5447 5448 5449 5450 5451 5452 5453
5384 5384 5385 5385 5386 5387 5389 5390 5392 5393 5395 5396 5398 5399 5401 5402 5403 5405 5407 5408 5410 5411 5413 5414 5416 5417 5418 5420 5422 5423 5425 5427 5428 5429 5431 5432 5433 5434 5435 5436 5436 5437 5438
5374 5374 5374 5375 5375 5376 5377 5378 5380 5381 5383 5384 5385 5387 5388 5389 5391 5392 5394 5395 5397 5398 5400 5401 5402 5404 5405 5407 5408 5410 5412 5413 5415 5416 5417 5418 5419 5420 5421 5422 5422 5423 5424
5364 5364 5364 5364 5365 5365 5366 5367 5368 5369 5371 5372 5373 5374 5375 5377 5378 5380 5381 5383 5384 5386 5387 5388 5389 5391 5392 5394 5395 5397 5399 5401 5402 5403 5404 5405 5406 5407 5408 5408 5409 5409 5410
5354 5354 5354 5354 5354 5355 5355 5356 5357 5358 5359 5360 5361 5363 5363 5365 5366 5367 5369 5370 5372 5373 5374 5376 5377 5378 5380 5382 5383 5385 5386 5388 5389 5390 5391 5392 5393 5394 5395 5395 5396 5396 5397
5345 5344 5344 5344 5344 5345 5345 5345 5346 5347 5348 5349 5350 5351 5352 5353 5354 5355 5356 5358 5359 5361 5362 5364 5365 5367 5368 5369 5371 5372 5374 5375 5376 5377 5378 5379 5380 5381 5382 5382 5382 5383 5383
5336 5335 5335 5335 5335 5335 5335 5335 5336 5336 5337 5338 5338 5339 5340 5341 5342 5343 5345 5346 5347 5348 5350 5351 5353 5355 5356 5358 5359 5360 5362 5363 5364 5365 5366 5367 5368 5368 5369 5369 5369 5369 5369
5327 5326 5326 5325 5325 5325 5325 5325 5325 5326 5326 5327 5328 5328 5329 5330 5331 5332 5333 5334 5336 5337 5338 5339 5341 5343 5344 5346 5347 5349 5350 5351 5352 5353 5354 5355 5355 5356 5356 5356 5356 5356 5356
5317 5317 5316 5316 5316 5315 5315 5315 5315 5316 5316 5317 5317 5318 5319 5320 5321 5322 5323 5324 5325 5326 5327 5328 5330 5331 5333 5334 5335 5337 5338 5339 5340 5340 5341 5342 5343 5343 5343 5343 5343 5343 5343
5308 5307 5307 5307 5306 5306 5305 5305 5305 5305 5306 5307 5307 5308 5309 5310 5311 5311 5312 5313 5314 5315 5316 5318 5319 5320 5322 5323 5324 5325 5326 5327 5328 5328 5329 5330 5330 5330 5330 5330 5330 5330 5329
5299 5298 5297 5296 5296 5296 5295 5295 5295 5295 5296 5296 5297 5298 5299 5300 5301 5301 5302 5303 5304 5305 5306 5307 5309 5310 5311 5312 5313 5314 5315 5316 5316 5316 5317 5318 5318 5318 5318 5318 5317 5317 5317
Wind_Speed
49 50 50 52 53 52 53 54 54 55 55 56 55 55 55 55 56 56 56 56 56 55 55 55 55 55 55 56 56 56 56 56 55 54 54 54 54 53 53 52 52 51 51
48 48 49 50 51 52 52 53 53 54 54 54 54 55 55 55 55 56 56 56 57 56 56 56 57 56 56 56 57 57 57 57 57 56 55 55 55 55 55 54 53 53 53
47 48 48 48 49 50 51 52 52 52 52 52 53 54 54 55 55 55 55 55 55 55 56 57 57 57 57 56 57 58 59 58 58 58 57 56 56 56 55 55 55 54 54
45 47 47 47 48 48 50 51 51 51 52 52 53 53 54 55 55 55 55 55 55 55 55 56 57 57 57 56 56 57 58 59 59 59 58 58 58 58 58 57 57 56 56
43 45 46 46 47 48 48 50 51 51 51 51 52 52 53 54 54 54 54 55 55 56 56 57 57 57 57 57 56 56 58 58 59 59 59 59 59 60 59 58 58 57 57
42 44 45 46 46 47 48 49 50 51 52 52 52 53 53 54 55 56 56 56 55 55 56 56 56 57 57 56 56 55 56 56 57 58 58 58 59 59 59 59 58 58 58
39 41 44 46 46 47 48 49 50 51 52 52 52 52 53 54 55 55 56 55 55 54 54 54 54 55 55 56 56 55 55 55 55 56 57 57 58 59 59 59 59 58 58
39 40 42 44 45 46 47 48 49 50 51 51 52 52 52 53 54 54 54 55 54 54 53 53 53 54 55 56 56 55 55 55 56 56 56 56 57 58 59 59 59 59 59
39 40 40 42 43 44 45 46 47 47 49 49 49 50 51 52 52 54 55 55 55 55 54 54 53 53 54 55 56 56 55 56 56 56 56 56 56 57 58 59 59 60 60
39 40 40 41 42 42 43 44 44 45 47 48 49 49 50 50 51 53 54 55 54 54 54 54 54 54 54 54 55 55 55 55 55 55 56 56 57 58 58 59 59 59 59
39 39 40 42 42 41 42 43 43 44 45 46 47 48 49 50 51 52 52 52 52 53 53 54 54 54 54 54 55 55 55 55 55 55 56 57 58 58 58 58 59 60 59
38 38 39 40 42 42 42 43 43 44 44 44 45 46 47 48 49 50 50 50 51 51 51 52 53 53 53 53 53 54 54 54 54 55 56 56 57 57 58 58 59 60 60
37 38 38 39 41 42 42 43 43 43 43 43 44 44 45 46 47 49 49 49 50 50 50 50 51 52 52 52 52 53 54 54 56 56 56 56 56 56 57 58 59 60 60
36 37 38 38 40 40 41 42 43 43 43 43 44 44 44 45 46 47 48 49 49 49 49 49 50 50 50 50 50 51 51 53 53 53 53 54 54 55 55 56 57 58 58
35 35 36 38 38 39 40 40 41 42 43 43 44 44 44 45 45 46 47 47 47 47 47 47 48 49 49 50 49 49 50 50 50 51 51 51 52 52 53 54 54 55 55
32 33 34 35 37 38 38 39 40 41 41 42 42 42 43 43 44 45 45 45 45 46 46 46 46 47 48 49 49 49 49 48 48 48 49 50 50 50 50 51 51 52 52
30 31 32 33 34 36 37 38 39 39 39 40 40 40 40 41 43 43 43 44 44 44 45 45 45 46 46 47 48 48 48 46 46 46 47 47 48 48 48 49 49 49 50
29 30 30 31 33 34 35 36 37 38 38 39 39 39 40 41 41 42 42 42 42 43 43 44 44 44 44 45 45 45 45 44 44 44 45 45 46 46 46 46 46 47 47
28 29 29 30 31 32 33 34 35 37 38 39 39 40 40 39 40 40 41 41 42 42 42 42 42 41 42 43 43 43 44 44 43 43 43 44 44 44 44 44 44 45 45
27 28 29 29 29 30 31 32 34 35 36 37 37 38 38 38 38 38 39 39 40 40 40 40 40 40 40 40 41 42 43 43 44 44 44 43 43 43 43 43 44 44 44
26 27 27 28 29 29 30 31 31 32 33 34 35 36 37 37 37 37 37 38 38 39 39 39 39 39 39 39 39 39 40 40 41 42 43 43 43 43 43 44 44 44 44
25 25 26 27 28 28 29 30 31 31 31 32 33 34 35 35 35 36 36 37 37 37 38 38 38 38 38 38 39 39 39 39 40 40 41 42 42 42 42 43 43 43 44
25 26 27 27 28 28 29 29 30 30 30 31 32 32 32 32 33 33 33 34 34 35 36 37 37 38 38 38 38 38 38 38 39 39 40 41 41 41 42 43 43 43 43
26 26 27 27 28 28 29 29 29 30 30 30 30 30 31 31 31 31 31 32 32 33 34 34 35 36 36 37 37 37 37 38 38 39 40 40 41 41 42 42 42 42 42
26 27 28 28 28 29 29 28 29 29 30 30 29 29 29 29 29 29 30 30 31 31 32 32 33 33 34 35 35 35 36 37 37 38 39 39 40 40 40 41 41 40 40
27 28 28 29 29 29 29 29 29 29 29 29 29 29 28 28 29 29 30 30 30 30 31 31 31 32 32 33 34 34 35 35 36 36 37 37 38 38 38 38 38 38 38
Wind_Direction
248 248 247 246 246 246 247 246 245 244 244 244 243 244 245 246 247 248 249 250 250 251 252 253 254 255 255 256 256 257 257 257 256 255 255 256 256 258 259 259 259 260 262
249 248 248 247 247 246 247 246 245 244 243 243 243 244 246 246 247 248 249 251 251 252 253 253 254 255 256 256 257 256 256 256 256 255 255 256 256 257 258 259 260 260 261
249 249 249 248 247 246 246 246 245 244 243 243 244 245 246 247 248 248 249 251 252 253 254 254 255 256 256 256 257 257 256 255 256 256 255 255 255 256 257 259 260 261 261
249 249 249 248 247 247 246 246 245 244 243 243 246 247 247 248 249 249 250 251 252 253 254 255 255 256 256 257 257 257 256 255 255 255 255 255 256 256 257 259 260 261 261
250 248 248 248 248 247 246 246 244 244 244 245 246 248 248 249 250 251 252 252 253 254 255 255 255 255 256 256 257 257 257 256 256 256 255 256 256 257 257 258 259 260 260
251 250 248 248 247 246 245 245 245 245 245 246 247 247 249 250 251 253 253 254 254 255 256 256 255 255 255 256 257 257 256 256 256 256 256 256 256 256 257 258 259 259 260
253 251 250 248 247 246 246 246 246 246 246 247 248 248 250 251 252 252 252 253 253 254 255 256 256 256 256 256 256 256 257 256 256 256 256 256 256 256 257 258 258 259 260
254 253 253 251 249 248 248 247 246 246 246 248 248 249 250 252 252 253 252 252 253 253 254 255 256 256 255 255 255 257 257 257 256 257 257 257 257 257 257 257 257 259 260
255 254 254 252 251 250 249 248 247 247 247 247 250 250 251 251 252 253 253 253 253 254 254 255 256 256 255 255 255 256 256 257 256 257 257 258 258 259 259 259 259 260 260
257 255 254 253 252 252 251 249 248 248 248 248 250 251 252 252 252 253 254 255 255 254 254 254 255 254 255 255 255 255 256 257 257 257 258 259 259 260 260 260 261 261 261
258 257 255 254 253 253 252 251 250 250 250 250 250 251 252 252 253 254 254 255 255 255 255 254 254 254 255 255 255 256 256 257 257 258 258 259 260 260 260 260 261 261 262
258 257 256 255 254 254 253 252 252 251 252 252 252 252 252 252 253 254 254 255 255 255 255 254 254 255 255 256 256 256 257 257 258 258 259 259 260 260 260 260 261 261 261
259 258 257 256 256 255 255 254 253 253 253 253 253 253 253 254 254 254 255 255 255 255 254 254 254 255 256 257 258 259 258 258 259 259 260 260 260 260 261 261 261 262 262
261 259 258 257 256 256 256 255 254 254 254 254 254 254 255 255 255 254 254 255 255 255 254 254 254 254 255 256 257 258 259 259 260 260 260 260 260 261 261 261 261 262 263
261 261 259 258 257 255 255 255 254 254 255 255 255 256 256 255 255 254 254 254 255 255 255 255 254 254 255 256 257 258 259 260 260 260 260 260 260 261 261 262 262 263 263
262 262 262 260 258 255 255 256 256 255 256 256 257 257 257 256 255 255 254 254 255 255 255 255 255 255 255 255 255 257 258 259 259 260 260 260 261 262 262 262 262 263 263
265 264 263 261 260 258 256 256 257 256 256 256 257 257 257 257 256 255 254 254 254 255 256 255 255 256 256 256 256 257 258 258 258 259 259 260 261 262 262 262 263 264 263
267 265 264 262 261 260 259 258 257 256 256 257 258 258 258 258 257 256 256 255 255 255 255 255 255 256 256 256 256 256 256 257 258 259 260 261 262 263 263 263 264 264 264
267 266 265 264 262 262 260 258 257 257 257 258 258 259 258 257 257 257 256 256 256 255 255 255 256 255 256 256 255 255 255 256 258 259 260 261 262 263 263 264 264 265 265
268 268 266 264 263 262 261 260 258 258 258 258 258 258 258 258 257 257 257 257 256 255 255 256 256 255 255 255 255 255 256 257 258 258 260 261 262 263 263 264 265 266 267
270 270 269 267 265 265 263 262 261 260 259 258 258 258 258 258 258 258 257 257 257 256 256 255 255 255 254 254 255 255 256 257 258 259 260 261 262 263 264 265 266 268 268
271 271 270 269 268 267 265 263 262 262 261 260 259 259 259 258 258 258 257 256 256 256 255 255 254 254 254 255 256 257 258 259 259 259 260 261 262 264 265 267 268 269 270
273 272 271 270 268 268 267 265 264 263 263 262 261 260 259 258 258 258 257 256 256 256 256 255 254 254 254 255 257 257 258 259 259 260 260 261 263 265 266 268 268 269 271
273 273 272 271 270 269 268 267 265 264 263 262 261 260 258 257 257 258 257 256 256 256 255 255 254 254 254 255 256 257 258 259 260 261 262 263 264 266 267 268 269 270 272
275 274 273 272 272 271 269 268 266 265 263 262 261 259 258 257 257 257 256 256 256 256 255 254 254 254 254 255 255 256 258 259 261 262 262 264 265 266 267 268 269 270 272
276 275 274 272 271 270 269 267 267 266 264 262 260 259 257 257 257 257 257 257 257 256 255 255 254 255 255 256 257 259 260 261 262 262 263 265 266 266 267 268 269 270 272